Home > Weather > Gothenburg > Past weeks

Flag for Sweden Past Weather in Gothenburg, Sweden — Yesterday and Last 2 Weeks

Now
50 °F

Low clouds.


Feels Like: 47 °F
Forecast: 51 / 69 °F
Wind: 8 mph from Northeast

Location: Gothenburg / Save

Current Time: May 28, 2016 at 8:05:40 AM

Latest Report: May 28, 2016 at 7:20 AM


Visibility: N/A

Pressure: 30.12 "Hg

Humidity: 94%

Dew Point: 48 °F

Location of GothenburgLocation

Past Weather in Gothenburg — Graph

°F

Gothenburg Temperature Yesterday

Maximum temperature yesterday: 61 °F (at 3:50 PM)
Minimum temperature yesterday: 43 °F (at 2:50 AM)
Average temperature yesterday: 54 °F

High & Low Weather Summary for the Past Weeks

 TemperatureHumidityPressure
High73 °F (May 22, 6:50 PM)100% (May 21, 12:20 AM)30.12 "Hg (May 21, 12:20 AM)
Low36 °F (May 26, 4:50 AM)44% (May 16, 11:50 AM)29.53 "Hg (May 13, 3:20 PM)
Average54 °F76%29.84 "Hg
* Reported May 13 6:20 AM — May 28 6:50 AM, Gothenburg, Weather by CustomWeather, © 2016

Note: Actual official high and low records may vary slightly from our data, if they occured in-between our weather recording intervals... More about our weather records

Advertising

Gothenburg Weather History for the Previous 24 Hours

Scroll right to see more
 ConditionsComfort  
Time TempWeatherWind HumidityBarometerVisibility
6:50 AM
Sat, May 28
48 °FPartly sunny.7 mph94%30.12 "HgN/A
6:20 AM48 °FMostly cloudy.8 mph94%30.12 "HgN/A
5:50 AM48 °FBroken clouds.6 mph94%30.12 "HgN/A
5:20 AM48 °FPassing clouds.5 mph94%30.12 "HgN/A
4:50 AM48 °FPassing clouds.6 mph94%30.12 "HgN/A
4:20 AM48 °FCool.3 mph94%30.12 "HgN/A
3:50 AM48 °FCool.6 mph87%30.12 "HgN/A
3:20 AM50 °FPassing clouds.6 mph88%30.12 "HgN/A
2:50 AM50 °FOvercast.5 mph88%30.12 "HgN/A
2:20 AM50 °FOvercast.5 mph88%30.12 "HgN/A
1:50 AM50 °FPassing clouds.3 mph88%30.12 "HgN/A
1:20 AM50 °FPassing clouds.3 mph82%30.12 "HgN/A
12:50 AM50 °FPassing clouds.5 mph82%30.12 "HgN/A
12:20 AM48 °FPartly cloudy.5 mph87%30.12 "HgN/A
11:50 PM
Fri, May 27
50 °FPassing clouds.3 mph82%30.12 "HgN/A
11:20 PM50 °FPassing clouds.3 mph82%30.12 "HgN/A
10:50 PM52 °FCool.5 mph77%30.12 "HgN/A
10:20 PM52 °FCool.6 mph77%30.12 "HgN/A
9:50 PM54 °FSunny.7 mph72%30.12 "Hg10 mi
9:20 PM55 °FSunny.9 mph72%30.12 "Hg10 mi
8:50 PM57 °FSunny.9 mph67%30.09 "Hg10 mi
8:20 PM59 °FSunny.9 mph63%30.09 "Hg10 mi
7:50 PM59 °FSunny.9 mph59%30.09 "Hg10 mi
7:20 PM61 °FPassing clouds.10 mph59%30.09 "HgN/A
6:50 PM61 °FPassing clouds.10 mph59%30.09 "HgN/A
6:20 PM61 °FPassing clouds.9 mph59%30.09 "HgN/A
5:50 PM61 °FPassing clouds.9 mph59%30.09 "HgN/A
5:20 PM59 °FBroken clouds.13 mph68%30.09 "HgN/A
4:50 PM61 °FOvercast.10 mph68%30.09 "HgN/A
4:20 PM61 °FMostly cloudy.9 mph63%30.09 "HgN/A
3:50 PM61 °FOvercast.9 mph68%30.09 "HgN/A
3:20 PM59 °FPartly sunny.10 mph72%30.09 "HgN/A
2:50 PM59 °FPartly sunny.9 mph72%30.09 "HgN/A
2:20 PM59 °FPartly sunny.8 mph72%30.09 "HgN/A
1:50 PM57 °FPartly sunny.10 mph72%30.09 "HgN/A
1:20 PM59 °FPartly sunny.8 mph68%30.09 "HgN/A
12:50 PM59 °FOvercast.12 mph68%30.09 "HgN/A
12:20 PM57 °FOvercast.9 mph72%30.09 "HgN/A
11:50 AM57 °FMostly cloudy.10 mph72%30.09 "HgN/A
11:20 AM57 °FPartly sunny.8 mph72%30.09 "HgN/A
10:50 AM57 °FOvercast.7 mph72%30.09 "HgN/A
10:20 AM55 °FOvercast.3 mph72%30.07 "HgN/A
9:50 AM55 °FPartly sunny.3 mph72%30.07 "HgN/A
9:20 AM55 °FPartly sunny.5 mph72%30.07 "HgN/A
8:50 AM55 °FOvercast.5 mph72%30.07 "HgN/A
8:20 AM54 °FPartly sunny.2 mph82%30.07 "HgN/A
Weather by CustomWeather, © 2016

See weather overviewHow to use our weather pages